Starlink 5156

operational
NORAD ID: 53973 Int'l Des: 2022-125 Owner: SPXS Country: US Constellation: starlink
LEOCIRCULAR

Starlink 5156について

説明を読み込み中...

リアルタイム位置

3D地球を読み込み中...

次回通過

高度履歴

Altitude vs Time

uPlot chart will show altitude changes over time

軌道要素

1 53973U 22125K 25258.08602578 .00000353 00000-0 40278-4 0 9993
2 53973 53.2173 292.3168 0001201 84.7974 275.3155 15.08834693162817
Epoch: Sep 15, 2025 • Age: 12 hours

現在のステータス

高度 545.5 km
速度 7.60 km/s
衛星直下点 53.34°N, 178.9°E
打ち上げ日 Oct 5, 2022
運用期間 2.9 years
タイプ internet

技術仕様

分類 Payload
質量 305.00 kg
乾燥質量 290.00 kg
総質量 305.00 kg
長さ 0.20 m
直径 2.80 m
スパン 9.00 m
形状 Box + pan
製造者 SPXS
バスタイプ Starlink
フェーズステータス In Orbit
所有者/国 SPXS/US

大規模コンステレーション

Loading constellations...